Tracking 30298 objects as of 27-Apr-2025
HD Live streaming from Space Station
objects crossing your sky now

GGSE 3 DEB

Track GGSE 3 DEB now!
10-day predictions


NORAD ID: 44043
Int'l Code: 1965-016L
Perigee: 875.6 km
Apogee: 901.5 km
Inclination: 70.1 °
Period: 102.6 minutes
Semi major axis: 7259 km
RCS: Unknown
Launch date: March 9, 1965
Source: United States (US)
Launch site: AIR FORCE WESTERN TEST RANGE (AFWTR)

Note: This is SATELLITE DEBRIS
Your satellite tracking list
Your tracking list is empty




NASA's NSSDC Master Catalog

Two Line Element Set (TLE):
1 44043U 65016L   25117.38016087  .00001110  00000-0  73992-3 0  9998
2 44043  70.0736 120.1616 0017807 148.5352 211.6827 14.03591289317390
Source of the keplerian elements: AFSPC